Location: ????????
(55.0559°N, 39.1270°E)
Time: 01:35:48
(UTC+00:00)

NOSS 2-3 (C) - Pass Details

Date: 15 November 2025
Orbit: 460 x 1717 km, 63.3° (Epoch: 12 December)

Event Time Altitude Azimuth Distance (km) Brightness Sun altitude
Exits shadow 03:58:03 - 311° (NW) 2,084 5.7 -8.2°
Reaches altitude 10° 03:58:15 10° 312° (NW) 2,007 5.6 -8.2°
Maximum altitude 04:02:43 59° 33° (NNE) 876 4.4 -7.6°
Drops below altitude 10° 04:08:48 10° 112° (ESE) 2,717 8.7 -6.8°
Sets 04:11:53 0° 116° (ESE) 3,886 10.4 -6.4°
